iso_date,epoch_date,Year,Hour,Min,DOY,POS_DOY,Lat,Lon,BP,Ts,Ta,has_bp,has_ts,has_ta,BuoyID,Buoy_Type,Buoy_Owner,Logistics,Hemisphere
2020-12-26T01:59:57Z,1608947997,2020,2,0,361.0833,361.0833,71.86281,-168.3978,1009.0,-999.00,-999.0,yes,no,no,300534061410840,ITB,USIABP,Polar_Star,North
2020-12-26T03:00:00Z,1608951600,2020,3,0,361.125,361.125,71.86251,-168.39783,1009.1,-999.00,-999.0,yes,no,no,300534061410840,ITB,USIABP,Polar_Star,North
2020-12-26T04:00:02Z,1608955203,2020,4,0,361.1667,361.1667,71.86204,-168.39776,1009.2,-999.00,-999.0,yes,no,no,300534061410840,ITB,USIABP,Polar_Star,North
2020-12-26T04:59:57Z,1608958797,2020,5,0,361.2083,361.2083,71.86128,-168.39825,1009.7,-999.00,-999.0,yes,no,no,300534061410840,ITB,USIABP,Polar_Star,North
2020-12-26T06:00:00Z,1608962400,2020,6,0,361.25,361.25,71.86042,-168.39892,1009.7,-999.00,-999.0,yes,no,no,300534061410840,ITB,USIABP,Polar_Star,North
2020-12-26T07:00:02Z,1608966003,2020,7,0,361.2917,361.2917,71.85932,-168.39926,1009.9,-999.00,-999.0,yes,no,no,300534061410840,ITB,USIABP,Polar_Star,North
2020-12-26T07:59:57Z,1608969597,2020,8,0,361.3333,361.3333,71.85822,-168.40074,1010.4,-999.00,-999.0,yes,no,no,300534061410840,ITB,USIABP,Polar_Star,North
2020-12-26T09:00:00Z,1608973200,2020,9,0,361.375,361.375,71.85711,-168.40254,1010.4,-999.00,-999.0,yes,no,no,300534061410840,ITB,USIABP,Polar_Star,North
2020-12-26T10:00:02Z,1608976803,2020,10,0,361.4167,361.4167,71.85606,-168.40404,1010.6,-999.00,-999.0,yes,no,no,300534061410840,ITB,USIABP,Polar_Star,North
2020-12-26T10:59:57Z,1608980397,2020,11,0,361.4583,361.4583,71.85519,-168.40477,1010.6,-999.00,-999.0,yes,no,no,300534061410840,ITB,USIABP,Polar_Star,North
2020-12-26T12:00:00Z,1608984000,2020,12,0,361.5,361.5,71.85438,-168.40516,1010.8,-999.00,-999.0,yes,no,no,300534061410840,ITB,USIABP,Polar_Star,North
2020-12-26T13:00:02Z,1608987603,2020,13,0,361.5417,361.5417,71.85356,-168.40456,1010.8,-999.00,-999.0,yes,no,no,300534061410840,ITB,USIABP,Polar_Star,North
2020-12-26T13:59:57Z,1608991197,2020,14,0,361.5833,361.5833,71.85237,-168.40214,1010.9,-999.00,-999.0,yes,no,no,300534061410840,ITB,USIABP,Polar_Star,North
2020-12-26T15:00:00Z,1608994800,2020,15,0,361.625,361.625,71.85074,-168.3983,1010.8,-999.00,-999.0,yes,no,no,300534061410840,ITB,USIABP,Polar_Star,North
2020-12-26T16:00:02Z,1608998403,2020,16,0,361.6667,361.6667,71.84865,-168.39366,1011.0,-999.00,-999.0,yes,no,no,300534061410840,ITB,USIABP,Polar_Star,North
2020-12-26T16:59:57Z,1609001997,2020,17,0,361.7083,361.7083,71.84607,-168.38874,1011.0,-999.00,-999.0,yes,no,no,300534061410840,ITB,USIABP,Polar_Star,North
2020-12-26T18:00:00Z,1609005600,2020,18,0,361.75,361.75,71.84318,-168.38458,1011.5,-999.00,-999.0,yes,no,no,300534061410840,ITB,USIABP,Polar_Star,North
2020-12-26T19:00:02Z,1609009203,2020,19,0,361.7917,361.7917,71.83993,-168.3813,1011.3,-999.00,-999.0,yes,no,no,300534061410840,ITB,USIABP,Polar_Star,North
2020-12-26T19:59:57Z,1609012797,2020,20,0,361.8333,361.8333,71.83657,-168.37906,1011.7,-999.00,-999.0,yes,no,no,300534061410840,ITB,USIABP,Polar_Star,North
2020-12-26T21:00:00Z,1609016400,2020,21,0,361.875,361.875,71.83352,-168.37738,1011.9,-999.00,-999.0,yes,no,no,300534061410840,ITB,USIABP,Polar_Star,North
2020-12-26T22:00:02Z,1609020003,2020,22,0,361.9167,361.9167,71.83051,-168.37625,1012.0,-999.00,-999.0,yes,no,no,300534061410840,ITB,USIABP,Polar_Star,North
2020-12-26T22:59:57Z,1609023597,2020,23,0,361.9583,361.9583,71.8277,-168.37519,1011.8,-999.00,-999.0,yes,no,no,300534061410840,ITB,USIABP,Polar_Star,North
2020-12-27T00:00:00Z,1609027200,2020,0,0,362.0,362.0,71.82504,-168.37329,1012.1,-999.00,-999.0,yes,no,no,300534061410840,ITB,USIABP,Polar_Star,North
2020-12-27T01:00:02Z,1609030803,2020,1,0,362.0417,362.0417,71.82217,-168.3709,1012.1,-999.00,-999.0,yes,no,no,300534061410840,ITB,USIABP,Polar_Star,North
2020-12-27T01:59:57Z,1609034397,2020,2,0,362.0833,362.0833,71.81891,-168.36802,1012.0,-999.00,-999.0,yes,no,no,300534061410840,ITB,USIABP,Polar_Star,North
2020-12-27T03:00:00Z,1609038000,2020,3,0,362.125,362.125,71.81512,-168.3648,1012.0,-999.00,-999.0,yes,no,no,300534061410840,ITB,USIABP,Polar_Star,North
2020-12-27T04:00:02Z,1609041603,2020,4,0,362.1667,362.1667,71.81094,-168.36062,1012.2,-999.00,-999.0,yes,no,no,300534061410840,ITB,USIABP,Polar_Star,North
2020-12-27T04:59:57Z,1609045197,2020,5,0,362.2083,362.2083,71.80635,-168.35654,1012.6,-999.00,-999.0,yes,no,no,300534061410840,ITB,USIABP,Polar_Star,North
2020-12-27T06:00:00Z,1609048800,2020,6,0,362.25,362.25,71.80126,-168.35393,1012.8,-999.00,-999.0,yes,no,no,300534061410840,ITB,USIABP,Polar_Star,North
2020-12-27T07:00:02Z,1609052403,2020,7,0,362.2917,362.2917,71.79572,-168.35344,1012.7,-999.00,-999.0,yes,no,no,300534061410840,ITB,USIABP,Polar_Star,North
2020-12-27T07:59:57Z,1609055997,2020,8,0,362.3333,362.3333,71.78992,-168.35536,1012.8,-999.00,-999.0,yes,no,no,300534061410840,ITB,USIABP,Polar_Star,North
2020-12-27T09:00:00Z,1609059600,2020,9,0,362.375,362.375,71.78471,-168.35931,1012.8,-999.00,-999.0,yes,no,no,300534061410840,ITB,USIABP,Polar_Star,North
2020-12-27T10:00:02Z,1609063203,2020,10,0,362.4167,362.4167,71.78012,-168.36411,1012.9,-999.00,-999.0,yes,no,no,300534061410840,ITB,USIABP,Polar_Star,North
2020-12-27T10:59:57Z,1609066797,2020,11,0,362.4583,362.4583,71.77615,-168.36837,1013.0,-999.00,-999.0,yes,no,no,300534061410840,ITB,USIABP,Polar_Star,North
2020-12-27T12:00:00Z,1609070400,2020,12,0,362.5,362.5,71.77265,-168.37377,1012.9,-999.00,-999.0,yes,no,no,300534061410840,ITB,USIABP,Polar_Star,North
2020-12-27T13:00:02Z,1609074003,2020,13,0,362.5417,362.5417,71.76908,-168.37785,1012.8,-999.00,-999.0,yes,no,no,300534061410840,ITB,USIABP,Polar_Star,North
2020-12-27T13:59:57Z,1609077597,2020,14,0,362.5833,362.5833,71.76568,-168.38043,1012.7,-999.00,-999.0,yes,no,no,300534061410840,ITB,USIABP,Polar_Star,North
2020-12-27T15:00:00Z,1609081200,2020,15,0,362.625,362.625,71.76214,-168.38081,1012.7,-999.00,-999.0,yes,no,no,300534061410840,ITB,USIABP,Polar_Star,North
2020-12-27T16:00:02Z,1609084803,2020,16,0,362.6667,362.6667,71.75843,-168.37984,1013.0,-999.00,-999.0,yes,no,no,300534061410840,ITB,USIABP,Polar_Star,North
2020-12-27T18:00:00Z,1609092000,2020,18,0,362.75,362.75,71.74977,-168.37774,1012.8,-999.00,-999.0,yes,no,no,300534061410840,ITB,USIABP,Polar_Star,North
2020-12-27T19:00:02Z,1609095603,2020,19,0,362.7917,362.7917,71.74531,-168.37814,1012.6,-999.00,-999.0,yes,no,no,300534061410840,ITB,USIABP,Polar_Star,North
2020-12-27T19:59:57Z,1609099197,2020,20,0,362.8333,362.8333,71.74097,-168.37904,1013.1,-999.00,-999.0,yes,no,no,300534061410840,ITB,USIABP,Polar_Star,North
2020-12-27T21:00:00Z,1609102800,2020,21,0,362.875,362.875,71.73683,-168.38231,1013.1,-999.00,-999.0,yes,no,no,300534061410840,ITB,USIABP,Polar_Star,North
2020-12-27T22:00:02Z,1609106403,2020,22,0,362.9167,362.9167,71.73327,-168.38589,1013.2,-999.00,-999.0,yes,no,no,300534061410840,ITB,USIABP,Polar_Star,North
2020-12-27T22:59:57Z,1609109997,2020,23,0,362.9583,362.9583,71.72995,-168.38896,1013.3,-999.00,-999.0,yes,no,no,300534061410840,ITB,USIABP,Polar_Star,North
2020-12-28T00:00:00Z,1609113600,2020,0,0,363.0,363.0,71.72712,-168.39093,1013.2,-999.00,-999.0,yes,no,no,300534061410840,ITB,USIABP,Polar_Star,North
2020-12-28T01:00:02Z,1609117203,2020,1,0,363.0417,363.0417,71.72461,-168.39226,1013.3,-999.00,-999.0,yes,no,no,300534061410840,ITB,USIABP,Polar_Star,North
2020-12-28T01:59:57Z,1609120797,2020,2,0,363.0833,363.0833,71.72222,-168.3923,1013.1,-999.00,-999.0,yes,no,no,300534061410840,ITB,USIABP,Polar_Star,North
2020-12-28T03:00:00Z,1609124400,2020,3,0,363.125,363.125,71.72016,-168.39158,1013.2,-999.00,-999.0,yes,no,no,300534061410840,ITB,USIABP,Polar_Star,North
2020-12-28T04:00:02Z,1609128003,2020,4,0,363.1667,363.1667,71.7182,-168.38988,1013.3,-999.00,-999.0,yes,no,no,300534061410840,ITB,USIABP,Polar_Star,North
2020-12-28T04:59:57Z,1609131597,2020,5,0,363.2083,363.2083,71.7162,-168.3884,1013.3,-999.00,-999.0,yes,no,no,300534061410840,ITB,USIABP,Polar_Star,North
2020-12-28T06:00:00Z,1609135200,2020,6,0,363.25,363.25,71.71389,-168.38841,1012.9,-999.00,-999.0,yes,no,no,300534061410840,ITB,USIABP,Polar_Star,North
2020-12-28T07:00:02Z,1609138803,2020,7,0,363.2917,363.2917,71.7115,-168.38931,1013.3,-999.00,-999.0,yes,no,no,300534061410840,ITB,USIABP,Polar_Star,North
2020-12-28T07:59:57Z,1609142397,2020,8,0,363.3333,363.3333,71.70901,-168.39164,1013.5,-999.00,-999.0,yes,no,no,300534061410840,ITB,USIABP,Polar_Star,North
2020-12-28T10:00:02Z,1609149603,2020,10,0,363.4167,363.4167,71.70481,-168.39861,1013.7,-999.00,-999.0,yes,no,no,300534061410840,ITB,USIABP,Polar_Star,North
2020-12-28T10:59:57Z,1609153197,2020,11,0,363.4583,363.4583,71.7028,-168.40312,1013.5,-999.00,-999.0,yes,no,no,300534061410840,ITB,USIABP,Polar_Star,North
2020-12-28T12:00:00Z,1609156800,2020,12,0,363.5,363.5,71.70078,-168.40812,1013.8,-999.00,-999.0,yes,no,no,300534061410840,ITB,USIABP,Polar_Star,North
2020-12-28T13:00:02Z,1609160403,2020,13,0,363.5417,363.5417,71.69917,-168.41292,1013.8,-999.00,-999.0,yes,no,no,300534061410840,ITB,USIABP,Polar_Star,North
2020-12-28T13:59:57Z,1609163997,2020,14,0,363.5833,363.5833,71.69809,-168.41566,1013.7,-999.00,-999.0,yes,no,no,300534061410840,ITB,USIABP,Polar_Star,North
2020-12-28T15:00:00Z,1609167600,2020,15,0,363.625,363.625,71.69731,-168.41639,1013.8,-999.00,-999.0,yes,no,no,300534061410840,ITB,USIABP,Polar_Star,North
2020-12-28T16:00:02Z,1609171203,2020,16,0,363.6667,363.6667,71.69651,-168.41548,1014.0,-999.00,-999.0,yes,no,no,300534061410840,ITB,USIABP,Polar_Star,North
2020-12-28T16:59:57Z,1609174797,2020,17,0,363.7083,363.7083,71.69559,-168.41329,1013.9,-999.00,-999.0,yes,no,no,300534061410840,ITB,USIABP,Polar_Star,North
2020-12-28T18:00:00Z,1609178400,2020,18,0,363.75,363.75,71.69425,-168.41146,1014.2,-999.00,-999.0,yes,no,no,300534061410840,ITB,USIABP,Polar_Star,North
2020-12-28T19:00:02Z,1609182003,2020,19,0,363.7917,363.7917,71.69206,-168.41142,1014.3,-999.00,-999.0,yes,no,no,300534061410840,ITB,USIABP,Polar_Star,North
2020-12-28T19:59:57Z,1609185597,2020,20,0,363.8333,363.8333,71.68902,-168.41247,1014.5,-999.00,-999.0,yes,no,no,300534061410840,ITB,USIABP,Polar_Star,North
2020-12-28T21:00:00Z,1609189200,2020,21,0,363.875,363.875,71.68617,-168.41694,1014.7,-999.00,-999.0,yes,no,no,300534061410840,ITB,USIABP,Polar_Star,North
2020-12-28T22:00:02Z,1609192803,2020,22,0,363.9167,363.9167,71.68361,-168.42167,1014.9,-999.00,-999.0,yes,no,no,300534061410840,ITB,USIABP,Polar_Star,North
2020-12-28T22:59:57Z,1609196397,2020,23,0,363.9583,363.9583,71.6814,-168.42593,1015.0,-999.00,-999.0,yes,no,no,300534061410840,ITB,USIABP,Polar_Star,North
2020-12-29T00:00:00Z,1609200000,2020,0,0,364.0,364.0,71.67972,-168.43019,1015.0,-999.00,-999.0,yes,no,no,300534061410840,ITB,USIABP,Polar_Star,North
2020-12-29T01:00:02Z,1609203603,2020,1,0,364.0417,364.0417,71.67846,-168.43321,1015.5,-999.00,-999.0,yes,no,no,300534061410840,ITB,USIABP,Polar_Star,North
2020-12-29T01:59:57Z,1609207197,2020,2,0,364.0833,364.0833,71.6776,-168.43484,1015.5,-999.00,-999.0,yes,no,no,300534061410840,ITB,USIABP,Polar_Star,North
2020-12-29T03:00:00Z,1609210800,2020,3,0,364.125,364.125,71.67699,-168.43573,1015.4,-999.00,-999.0,yes,no,no,300534061410840,ITB,USIABP,Polar_Star,North
2020-12-29T04:00:02Z,1609214403,2020,4,0,364.1667,364.1667,71.67609,-168.43469,1015.5,-999.00,-999.0,yes,no,no,300534061410840,ITB,USIABP,Polar_Star,North
2020-12-29T04:59:57Z,1609217997,2020,5,0,364.2083,364.2083,71.67464,-168.43289,1015.6,-999.00,-999.0,yes,no,no,300534061410840,ITB,USIABP,Polar_Star,North
2020-12-29T06:00:00Z,1609221600,2020,6,0,364.25,364.25,71.67273,-168.4323,1015.6,-999.00,-999.0,yes,no,no,300534061410840,ITB,USIABP,Polar_Star,North
2020-12-29T07:00:02Z,1609225203,2020,7,0,364.2917,364.2917,71.67034,-168.43415,1015.9,-999.00,-999.0,yes,no,no,300534061410840,ITB,USIABP,Polar_Star,North
2020-12-29T07:59:57Z,1609228797,2020,8,0,364.3333,364.3333,71.66778,-168.43811,1016.2,-999.00,-999.0,yes,no,no,300534061410840,ITB,USIABP,Polar_Star,North
2020-12-29T09:00:00Z,1609232400,2020,9,0,364.375,364.375,71.66523,-168.4445,1016.7,-999.00,-999.0,yes,no,no,300534061410840,ITB,USIABP,Polar_Star,North
2020-12-29T10:00:02Z,1609236003,2020,10,0,364.4167,364.4167,71.66283,-168.45333,1017.0,-999.00,-999.0,yes,no,no,300534061410840,ITB,USIABP,Polar_Star,North
2020-12-29T10:59:57Z,1609239597,2020,11,0,364.4583,364.4583,71.66077,-168.46419,1017.2,-999.00,-999.0,yes,no,no,300534061410840,ITB,USIABP,Polar_Star,North
2020-12-29T12:00:00Z,1609243200,2020,12,0,364.5,364.5,71.65935,-168.47563,1017.4,-999.00,-999.0,yes,no,no,300534061410840,ITB,USIABP,Polar_Star,North
2020-12-29T13:00:02Z,1609246803,2020,13,0,364.5417,364.5417,71.65851,-168.48638,1017.4,-999.00,-999.0,yes,no,no,300534061410840,ITB,USIABP,Polar_Star,North
2020-12-29T13:59:57Z,1609250397,2020,14,0,364.5833,364.5833,71.65842,-168.49618,1017.5,-999.00,-999.0,yes,no,no,300534061410840,ITB,USIABP,Polar_Star,North
2020-12-29T15:00:00Z,1609254000,2020,15,0,364.625,364.625,71.6586,-168.50292,1017.7,-999.00,-999.0,yes,no,no,300534061410840,ITB,USIABP,Polar_Star,North
2020-12-29T16:00:02Z,1609257603,2020,16,0,364.6667,364.6667,71.65913,-168.50928,1018.1,-999.00,-999.0,yes,no,no,300534061410840,ITB,USIABP,Polar_Star,North
2020-12-29T16:59:57Z,1609261197,2020,17,0,364.7083,364.7083,71.65967,-168.5131,1018.0,-999.00,-999.0,yes,no,no,300534061410840,ITB,USIABP,Polar_Star,North
2020-12-29T18:00:00Z,1609264800,2020,18,0,364.75,364.75,71.66022,-168.51579,1018.1,-999.00,-999.0,yes,no,no,300534061410840,ITB,USIABP,Polar_Star,North
2020-12-29T19:00:02Z,1609268403,2020,19,0,364.7917,364.7917,71.66045,-168.51739,1018.3,-999.00,-999.0,yes,no,no,300534061410840,ITB,USIABP,Polar_Star,North
2020-12-29T19:59:57Z,1609271997,2020,20,0,364.8333,364.8333,71.66021,-168.51901,1018.6,-999.00,-999.0,yes,no,no,300534061410840,ITB,USIABP,Polar_Star,North
2020-12-29T21:00:00Z,1609275600,2020,21,0,364.875,364.875,71.65991,-168.52146,1018.7,-999.00,-999.0,yes,no,no,300534061410840,ITB,USIABP,Polar_Star,North
2020-12-29T22:00:02Z,1609279203,2020,22,0,364.9167,364.9167,71.65944,-168.52543,1018.9,-999.00,-999.0,yes,no,no,300534061410840,ITB,USIABP,Polar_Star,North
2020-12-29T22:59:57Z,1609282797,2020,23,0,364.9583,364.9583,71.65875,-168.53179,1018.6,-999.00,-999.0,yes,no,no,300534061410840,ITB,USIABP,Polar_Star,North
2020-12-30T00:00:00Z,1609286400,2020,0,0,365.0,365.0,71.65821,-168.54005,1018.5,-999.00,-999.0,yes,no,no,300534061410840,ITB,USIABP,Polar_Star,North
2020-12-30T01:00:02Z,1609290003,2020,1,0,365.0417,365.0417,71.65826,-168.54973,1018.5,-999.00,-999.0,yes,no,no,300534061410840,ITB,USIABP,Polar_Star,North
2020-12-30T01:59:57Z,1609293597,2020,2,0,365.0833,365.0833,71.65887,-168.55816,1018.3,-999.00,-999.0,yes,no,no,300534061410840,ITB,USIABP,Polar_Star,North
2020-12-30T03:00:00Z,1609297200,2020,3,0,365.125,365.125,71.6599,-168.56493,1018.6,-999.00,-999.0,yes,no,no,300534061410840,ITB,USIABP,Polar_Star,North
2020-12-30T04:00:02Z,1609300803,2020,4,0,365.1667,365.1667,71.66155,-168.57173,1018.8,-999.00,-999.0,yes,no,no,300534061410840,ITB,USIABP,Polar_Star,North
2020-12-30T04:59:57Z,1609304397,2020,5,0,365.2083,365.2083,71.66343,-168.57915,1018.7,-999.00,-999.0,yes,no,no,300534061410840,ITB,USIABP,Polar_Star,North
2020-12-30T06:00:00Z,1609308000,2020,6,0,365.25,365.25,71.66506,-168.58603,1018.5,-999.00,-999.0,yes,no,no,300534061410840,ITB,USIABP,Polar_Star,North
2020-12-30T07:00:02Z,1609311603,2020,7,0,365.2917,365.2917,71.66559,-168.59366,1018.4,-999.00,-999.0,yes,no,no,300534061410840,ITB,USIABP,Polar_Star,North
2020-12-30T07:59:57Z,1609315197,2020,8,0,365.3333,365.3333,71.66558,-168.60198,1018.3,-999.00,-999.0,yes,no,no,300534061410840,ITB,USIABP,Polar_Star,North
2020-12-30T09:00:00Z,1609318800,2020,9,0,365.375,365.375,71.66582,-168.61366,1018.2,-999.00,-999.0,yes,no,no,300534061410840,ITB,USIABP,Polar_Star,North
2020-12-30T10:00:02Z,1609322403,2020,10,0,365.4167,365.4167,71.66634,-168.62972,1018.1,-999.00,-999.0,yes,no,no,300534061410840,ITB,USIABP,Polar_Star,North
2020-12-30T10:59:57Z,1609325997,2020,11,0,365.4583,365.4583,71.6671,-168.64755,1018.2,-999.00,-999.0,yes,no,no,300534061410840,ITB,USIABP,Polar_Star,North
2020-12-30T12:00:00Z,1609329600,2020,12,0,365.5,365.5,71.66837,-168.66684,1018.3,-999.00,-999.0,yes,no,no,300534061410840,ITB,USIABP,Polar_Star,North
2020-12-30T13:00:02Z,1609333203,2020,13,0,365.5417,365.5417,71.67035,-168.68689,1017.7,-999.00,-999.0,yes,no,no,300534061410840,ITB,USIABP,Polar_Star,North
2020-12-30T13:59:57Z,1609336797,2020,14,0,365.5833,365.5833,71.67353,-168.70805,1017.7,-999.00,-999.0,yes,no,no,300534061410840,ITB,USIABP,Polar_Star,North
2020-12-30T15:00:00Z,1609340400,2020,15,0,365.625,365.625,71.67768,-168.72862,1018.0,-999.00,-999.0,yes,no,no,300534061410840,ITB,USIABP,Polar_Star,North
2020-12-30T16:00:02Z,1609344003,2020,16,0,365.6667,365.6667,71.68296,-168.74877,1017.9,-999.00,-999.0,yes,no,no,300534061410840,ITB,USIABP,Polar_Star,North
2020-12-30T16:59:57Z,1609347597,2020,17,0,365.7083,365.7083,71.68755,-168.76735,1017.6,-999.00,-999.0,yes,no,no,300534061410840,ITB,USIABP,Polar_Star,North
2020-12-30T18:00:00Z,1609351200,2020,18,0,365.75,365.75,71.69206,-168.78485,1017.6,-999.00,-999.0,yes,no,no,300534061410840,ITB,USIABP,Polar_Star,North
2020-12-30T19:00:02Z,1609354803,2020,19,0,365.7917,365.7917,71.69627,-168.80245,1017.6,-999.00,-999.0,yes,no,no,300534061410840,ITB,USIABP,Polar_Star,North
2020-12-30T19:59:57Z,1609358397,2020,20,0,365.8333,365.8333,71.70073,-168.82297,1017.6,-999.00,-999.0,yes,no,no,300534061410840,ITB,USIABP,Polar_Star,North
2020-12-30T21:00:00Z,1609362000,2020,21,0,365.875,365.875,71.70481,-168.84559,1017.4,-999.00,-999.0,yes,no,no,300534061410840,ITB,USIABP,Polar_Star,North
2020-12-30T22:00:02Z,1609365603,2020,22,0,365.9167,365.9167,71.70921,-168.87024,1017.1,-999.00,-999.0,yes,no,no,300534061410840,ITB,USIABP,Polar_Star,North
2020-12-30T22:59:57Z,1609369197,2020,23,0,365.9583,365.9583,71.71376,-168.89526,1017.4,-999.00,-999.0,yes,no,no,300534061410840,ITB,USIABP,Polar_Star,North
2020-12-31T00:00:00Z,1609372800,2020,0,0,366.0,366.0,71.71903,-168.92239,1017.4,-999.00,-999.0,yes,no,no,300534061410840,ITB,USIABP,Polar_Star,North
2020-12-31T01:00:02Z,1609376403,2020,1,0,366.0417,366.0417,71.72498,-168.95024,1017.1,-999.00,-999.0,yes,no,no,300534061410840,ITB,USIABP,Polar_Star,North
2020-12-31T01:59:57Z,1609379997,2020,2,0,366.0833,366.0833,71.73174,-168.97849,1017.0,-999.00,-999.0,yes,no,no,300534061410840,ITB,USIABP,Polar_Star,North
2020-12-31T03:00:00Z,1609383600,2020,3,0,366.125,366.125,71.7392,-169.00636,1016.9,-999.00,-999.0,yes,no,no,300534061410840,ITB,USIABP,Polar_Star,North
2020-12-31T04:00:02Z,1609387203,2020,4,0,366.1667,366.1667,71.7477,-169.03307,1016.9,-999.00,-999.0,yes,no,no,300534061410840,ITB,USIABP,Polar_Star,North
2020-12-31T04:59:57Z,1609390797,2020,5,0,366.2083,366.2083,71.75639,-169.05782,1016.8,-999.00,-999.0,yes,no,no,300534061410840,ITB,USIABP,Polar_Star,North
2020-12-31T06:00:00Z,1609394400,2020,6,0,366.25,366.25,71.76513,-169.08192,1016.8,-999.00,-999.0,yes,no,no,300534061410840,ITB,USIABP,Polar_Star,North
2020-12-31T07:00:02Z,1609398003,2020,7,0,366.2917,366.2917,71.77312,-169.10573,1016.5,-999.00,-999.0,yes,no,no,300534061410840,ITB,USIABP,Polar_Star,North
2020-12-31T07:59:57Z,1609401597,2020,8,0,366.3333,366.3333,71.78064,-169.12985,1016.3,-999.00,-999.0,yes,no,no,300534061410840,ITB,USIABP,Polar_Star,North
2020-12-31T09:00:00Z,1609405200,2020,9,0,366.375,366.375,71.78795,-169.15511,1016.3,-999.00,-999.0,yes,no,no,300534061410840,ITB,USIABP,Polar_Star,North
2020-12-31T10:00:02Z,1609408803,2020,10,0,366.4167,366.4167,71.79563,-169.18283,1016.4,-999.00,-999.0,yes,no,no,300534061410840,ITB,USIABP,Polar_Star,North
2020-12-31T10:59:57Z,1609412397,2020,11,0,366.4583,366.4583,71.80387,-169.21373,1016.5,-999.00,-999.0,yes,no,no,300534061410840,ITB,USIABP,Polar_Star,North
2020-12-31T12:00:00Z,1609416000,2020,12,0,366.5,366.5,71.8127,-169.24626,1016.3,-999.00,-999.0,yes,no,no,300534061410840,ITB,USIABP,Polar_Star,North
2020-12-31T13:00:02Z,1609419603,2020,13,0,366.5417,366.5417,71.82247,-169.28127,1015.8,-999.00,-999.0,yes,no,no,300534061410840,ITB,USIABP,Polar_Star,North
2020-12-31T13:59:57Z,1609423197,2020,14,0,366.5833,366.5833,71.83333,-169.31753,1015.7,-999.00,-999.0,yes,no,no,300534061410840,ITB,USIABP,Polar_Star,North
2020-12-31T15:00:00Z,1609426800,2020,15,0,366.625,366.625,71.84503,-169.35301,1015.2,-999.00,-999.0,yes,no,no,300534061410840,ITB,USIABP,Polar_Star,North
2020-12-31T16:00:02Z,1609430403,2020,16,0,366.6667,366.6667,71.85767,-169.38747,1014.9,-999.00,-999.0,yes,no,no,300534061410840,ITB,USIABP,Polar_Star,North
2020-12-31T16:59:57Z,1609433997,2020,17,0,366.7083,366.7083,71.87083,-169.42064,1014.5,-999.00,-999.0,yes,no,no,300534061410840,ITB,USIABP,Polar_Star,North
2020-12-31T18:00:00Z,1609437600,2020,18,0,366.75,366.75,71.88384,-169.45243,1014.2,-999.00,-999.0,yes,no,no,300534061410840,ITB,USIABP,Polar_Star,North
2020-12-31T19:00:02Z,1609441203,2020,19,0,366.7917,366.7917,71.89663,-169.48317,1014.3,-999.00,-999.0,yes,no,no,300534061410840,ITB,USIABP,Polar_Star,North
2020-12-31T19:59:57Z,1609444797,2020,20,0,366.8333,366.8333,71.90897,-169.51291,1014.1,-999.00,-999.0,yes,no,no,300534061410840,ITB,USIABP,Polar_Star,North
2020-12-31T21:00:00Z,1609448400,2020,21,0,366.875,366.875,71.92088,-169.54129,1014.4,-999.00,-999.0,yes,no,no,300534061410840,ITB,USIABP,Polar_Star,North
2020-12-31T22:00:02Z,1609452003,2020,22,0,366.9167,366.9167,71.93226,-169.57048,1014.5,-999.00,-999.0,yes,no,no,300534061410840,ITB,USIABP,Polar_Star,North
2020-12-31T22:59:57Z,1609455597,2020,23,0,366.9583,366.9583,71.94375,-169.60256,1014.6,-999.00,-999.0,yes,no,no,300534061410840,ITB,USIABP,Polar_Star,North
2021-01-01T00:00:00Z,1609459200,2021,0,0,1.0,1.0,71.95552,-169.63597,1014.4,-999.00,-999.0,yes,no,no,300534061410840,ITB,USIABP,Polar_Star,North
2021-01-01T01:00:02Z,1609462803,2021,1,0,1.0417,1.0417,71.96758,-169.67032,1014.1,-999.00,-999.0,yes,no,no,300534061410840,ITB,USIABP,Polar_Star,North
2021-01-01T01:59:57Z,1609466397,2021,2,0,1.0833,1.0833,71.98026,-169.70412,1014.3,-999.00,-999.0,yes,no,no,300534061410840,ITB,USIABP,Polar_Star,North
2021-01-01T03:00:00Z,1609470000,2021,3,0,1.125,1.125,71.99294,-169.73525,1014.5,-999.00,-999.0,yes,no,no,300534061410840,ITB,USIABP,Polar_Star,North
2021-01-01T04:00:02Z,1609473603,2021,4,0,1.1667,1.1667,72.00566,-169.76466,1014.4,-999.00,-999.0,yes,no,no,300534061410840,ITB,USIABP,Polar_Star,North
2021-01-01T04:59:57Z,1609477197,2021,5,0,1.2083,1.2083,72.01813,-169.79165,1014.2,-999.00,-999.0,yes,no,no,300534061410840,ITB,USIABP,Polar_Star,North
2021-01-01T06:00:00Z,1609480800,2021,6,0,1.25,1.25,72.03004,-169.817,1014.4,-999.00,-999.0,yes,no,no,300534061410840,ITB,USIABP,Polar_Star,North
2021-01-01T07:00:02Z,1609484403,2021,7,0,1.2917,1.2917,72.0411,-169.84114,1014.3,-999.00,-999.0,yes,no,no,300534061410840,ITB,USIABP,Polar_Star,North
2021-01-01T07:59:57Z,1609487997,2021,8,0,1.3333,1.3333,72.05109,-169.86644,1014.4,-999.00,-999.0,yes,no,no,300534061410840,ITB,USIABP,Polar_Star,North
2021-01-01T09:00:00Z,1609491600,2021,9,0,1.375,1.375,72.05966,-169.89316,1014.5,-999.00,-999.0,yes,no,no,300534061410840,ITB,USIABP,Polar_Star,North
2021-01-01T10:00:02Z,1609495203,2021,10,0,1.4167,1.4167,72.06727,-169.92171,1014.7,-999.00,-999.0,yes,no,no,300534061410840,ITB,USIABP,Polar_Star,North
2021-01-01T10:59:57Z,1609498797,2021,11,0,1.4583,1.4583,72.07407,-169.95202,1014.7,-999.00,-999.0,yes,no,no,300534061410840,ITB,USIABP,Polar_Star,North
2021-01-01T12:00:00Z,1609502400,2021,12,0,1.5,1.5,72.08102,-169.9838,1014.6,-999.00,-999.0,yes,no,no,300534061410840,ITB,USIABP,Polar_Star,North
2021-01-01T13:00:02Z,1609506003,2021,13,0,1.5417,1.5417,72.08837,-170.01731,1015.0,-999.00,-999.0,yes,no,no,300534061410840,ITB,USIABP,Polar_Star,North
2021-01-01T13:59:57Z,1609509597,2021,14,0,1.5833,1.5833,72.09615,-170.05058,1015.1,-999.00,-999.0,yes,no,no,300534061410840,ITB,USIABP,Polar_Star,North